Location: *
(28.3744°N, 81.5492°W)
Time: 03:52:59
(UTC+00:00)

MetOp-B - Pass Details

Date: 15 June 2025
Orbit: 820 x 821 km, 98.6° (Epoch: 11 July)

Event Time Altitude Azimuth Distance (km) Brightness Sun altitude
Exits shadow 02:27:30 33° 191° (S) 1,346 4.9 -22.7°
Maximum altitude 02:29:49 62° 258° (WSW) 922 4.5 -23.0°
Drops below altitude 10° 02:35:06 10° 339° (NNW) 2,418 7.5 -23.8°
Sets 02:37:30 0° 343° (NNW) 3,353 8.4 -24.2°
